GALEX

Satellite information

Favourite Embed

Satellite Type and Status

PAYLOADIN ORBIT

Key statistics

Satellite GALEX at a glance.

Uptime

8266

Days in orbit

Revolutions

≈ 14.7

Per day

Orbit

LEO

Low Earth Orbit

Inclination

29.0

Latest

Satellite identification and parameters

Extended collection of information and parameters for GALEX.

Object identification

Identified? True

Debris? False

Object name: GALEX

International designator: 2003-017A

Object number (NORAD): 27783

Object ID (CCSDS): 27783

Country: UNITED STATES OF AMERICA (US)

Current information (Y/N): Y

RCS size: LARGE

Orbital parameters

Period: 98.242 minutes

Inclination: 28.9955 deg

SMA: 7052.751 km

Apoapsis: 677.004 km

Periapsis: 672.227 km

RAAN: 204.6193 deg

Eccentricy: 0.00033866

Argument of periapsis: 47.2958 deg

Mean anomaly: 312.7915 deg

Mean motion: 14.65767128 rev/day

Mean motion (dot): 0.00001275 rev/day2

B* drag term: 0.00020987272 1/REarth

Two-line elements (TLE)

Creation date: Dec. 12, 2025, 10:14 a.m.

Reference frame: TEME

Reference center: EARTH

Epoch: Dec. 12, 2025, 6:35 a.m. UTC

TLE line 0: 0 GALEX

TLE line 1: 1 27783U 03017A 25346.27451049 .00001275 00000-0 20987-3 0 9994

TLE line 2: 2 27783 28.9955 204.6193 0003387 47.2958 312.7915 14.65767128209767

Live tracking on map

Real-time ground track for satellite GALEX.

In-orbit conjunctions

A list of the most updated potential collisions computed for object GALEX.

Target Orbit TCA Probability of collision Miss distance Type
COSMOS 2251 DEB LEO 2025-11-11 21:17:52 0.0004139122 270.0 (m) DEBRIS
CZ-6A DEB LEO 2025-09-16 19:18:42 0.0003174657 536.0 (m) DEBRIS
DELTA 1 DEB SSO 2025-07-02 19:54:50 0.001455773 116.0 (m) DEBRIS
SCOUT B-1 R/B LEO 2025-03-31 07:23:28 0.0003548769 583.0 (m) ROCKET BODY
FENGYUN 1C DEB SSO 2024-09-16 15:39:55 0.0001609611 587.0 (m) DEBRIS

Associated space launch

GALEX was lifted into orbit during the mission ‘Pegasus XL | Galaxy Evolution Explorer (GALEX)’, on board a Pegasus XL space rocket.

The launch took place on April 28, 2003, 11:59 a.m. from Cape Canaveral.

For more information about the launch, click the button.

Launch to space Pegasus XL | Galaxy Evolution Explorer (GALEX)
Pegasus XL | Galaxy Evolution Explorer (GALEX)

Agency: N/A

Status: Launch Successful

Launch date: April 28, 2003, 11:59 a.m. UTC

Rocket: Pegasus XL

Launch pad: Cape Canaveral

Location: Air launch to orbit

...

Latest news about this satellite

There are no fresh news available about this satellite. Check back as we update our databases every day.


Newsletter sign-up

Weekly statistics, charts and insights to help you stay on top of the space industry.